Location: Dana
(41.8364°N, 106.7042°W)
Time: 14:48:50
(UTC+00:00)

Injun/Solrad 3 - Pass Details

Date: 12 May 2026
Orbit: 867 x 989 km, 66.8° (Epoch: 7 June)

Event Time Altitude Azimuth Distance (km) Brightness Sun altitude
Rises 06:42:49 0° 336° (NNW) 3,670 12.1 -29.8°
Reaches altitude 10° 06:45:56 10° 350° (N) 2,734 11.3 -29.9°
Maximum altitude 06:51:02 24° 43° (NE) 1,910 9.9 -29.9°
Enters shadow 06:55:48 11° 94° (E) 2,652 10.2 -30.0°
Drops below altitude 10° 06:56:09 10° 96° (E) 2,747 - -30.0°
Sets 06:59:16 0° 109° (ESE) 3,690 - -30.0°
